Regional & State Weather Roundups


786 
ASUS41 KLWX 260710
RWRLWX
REGIONAL WEATHER ROUNDUP
NATIONAL WEATHER SERVICE BALTIMORE MD/WASHINGTON DC
300 AM EDT SUN JUN 26 2016
Note: "FAIR" indicates few or no clouds below 12,000 feet
with no significant weather and/or obstructions to visibility.
 TC=TEMPERATURE CELSIUS
 * =Non NWS site. Station does not report precipitation (e.g. rain,
    snow, etc.), thunder, or fog.
DCZ001-MDZ009-015-VAZ040>042-051-053>054-260800-
WASHINGTON METRO
  
CITY           SKY/WX    TMP DP  RH WIND       PRES   REMARKS
WASHINGTON NAT FAIR      70  57  63 W5        30.21R                  
DULLES         FAIR      62  59  90 CALM      30.21S                  
ANDREWS AFB    PTCLDY    62  58  87 CALM      30.20R                  
FT BELVOIR     FAIR      61  60  94 CALM      30.20S                  
QUANTICO       FAIR      66  64  93 NW7       30.21R                  
COLLEGE PARK*  FAIR      61  59  94 CALM      30.20S                  
LEESBURG*      FAIR      64  63  94 CALM      30.22S                  
MANASSAS*      FAIR      63  63 100 SE3       30.21S                  
GAITHERSBURG*  PTCLDY    61  55  82 CALM      30.25F                  
$$
MDZ006>007-011-014-260800-
BALTIMORE METRO
  
CITY           SKY/WX    TMP DP  RH WIND       PRES   REMARKS
BWI AIRPORT    PTCLDY    64  58  80 CALM      30.19F                  
MD SCIENCE CTR   N/A     72  57  59 MISG      30.20S                  
MARTIN STATE   PTCLDY    66  63  88 CALM      30.21F                  
ANNAPOLIS      CLEAR     69  58  67 CALM      30.19S                  
FORT MEADE*    PTCLDY    59  57  94 CALM      30.22F                  
$$
MDZ012-015-019>023-260800-
MARYLAND EASTERN SHORE
  
CITY           SKY/WX    TMP DP  RH WIND       PRES   REMARKS
OCEAN CITY     CLEAR     57  55  93 CALM      30.20R FOG              
SALISBURY      CLEAR     59  56  89 CALM      30.20S                  
BAY BRIDGE AP* CLEAR     66  61  82 CALM      30.20S                  
CAMBRIDGE*     PTCLDY    57  55  94 CALM      30.20R                  
EASTON*        PTCLDY    63  62  97 CALM      30.24S                  
$$
MDZ017>025-260800-
SOUTHERN MARYLAND
  
CITY           SKY/WX    TMP DP  RH WIND       PRES   REMARKS
PATUXENT RIVER CLEAR     63  59  87 CALM      30.19R                  
ST INIGOES     CLEAR     62  60  93 CALM      30.18R                  
LEONARDTOWN*   CLEAR     61  57  88 CALM      30.22R                  
$$
MDZ003>005-260800-
NORTH CENTRAL MARYLAND
  
CITY           SKY/WX    TMP DP  RH WIND       PRES   REMARKS
FREDERICK*     PTCLDY    59  59 100 CALM      30.24R                  
HAGERSTOWN APT CLEAR     70  57  63 CALM      30.23R                  
WESTMINSTER*   PTCLDY    66  63  88 CALM      30.23R                  
$$
MDZ501>502-260800-
WESTERN MARYLAND
  
CITY           SKY/WX    TMP DP  RH WIND       PRES   REMARKS
OAKLAND*       CLEAR     59  57  94 SE7       30.29R                  
CUMBERLAND*    CLEAR     64  64 100 CALM      30.26R                  
$$
VAZ025>031-260800-
SHENANDOAH VALLEY
  
CITY           SKY/WX    TMP DP  RH WIND       PRES   REMARKS
WINCHESTER*    FAIR      64  61  88 SW3       30.21S                  
FRONT ROYAL*   FAIR      61  61 100 CALM      30.21R                  
LURAY*         FAIR      63  63 100 CALM      30.23S FOG              
NEW MARKET*    FAIR      62  62 100 CALM      30.22S                  
STAUNTON*      MOCLDY    62  61  97 CALM      30.26S                  
WAYNESBORO*    FAIR      62  61  96 CALM      30.25S                  
$$
WVZ021-048>050-054>055-260800-
EASTERN WEST VIRGINIA PANHANDLE
  
CITY           SKY/WX    TMP DP  RH WIND       PRES   REMARKS
MARTINSBURG    FAIR      64  60  87 CALM      30.21R                  
PETERSBURG*    CLOUDY    62  62  99 CALM      30.24R FOG              
$$
VAZ036>039-050-260800-
CENTRAL FOOTHILLS
  
CITY           SKY/WX    TMP DP  RH WIND       PRES   REMARKS
CHARLOTTESVILL FAIR      64  62  93 CALM      30.22S FOG              
CULPEPER*      FAIR      64  64 100 CALM      30.22S FOG              
ORANGE*        FAIR      63  63 100 CALM      30.24R                  
GORDONSVILLE*  FAIR      62  62 100 CALM      30.21S                  
WARRENTON*     FAIR      60  56  86 CALM      30.21S FOG              
$$
VAZ055>057-260800-
NORTH AND CENTRAL PIEDMONT
  
CITY           SKY/WX    TMP DP  RH WIND       PRES   REMARKS
FREDERICKSBRG* FAIR      64  64 100 CALM      30.21R                  
STAFFORD*      FAIR      59  58  97 NW3       30.24R                  
$$
NCZ024-NYZ072-PAZ021-071-VAZ022-071-260800-
OTHER REGIONAL OBSERVATIONS
  
CITY           SKY/WX    TMP DP  RH WIND       PRES   REMARKS
NEW YORK CITY  CLEAR     68  53  58 CALM      30.26R                  
PHILADELPHIA   MOCLDY    67  57  70 CALM      30.22S                  
PITTSBURGH     CLEAR     68  61  78 SE5       30.16F                  
ROANOKE        MOCLDY    69  66  90 CALM      30.25S                  
RICHMOND       FAIR      64  62  93 CALM      30.21R                  
RALEIGH        PTCLDY    68  65  90 NE3       30.19S                  
$$
ANZ530>537-260800-
MARINE OBSERVATIONS
  
STATION/POSITION TIME  TEMP    WIND        PRES
                       AIR SEA DIR/SP/G
                 (UTC) (F)     (DEG/KT/KT) (MB)
THOMAS PT LIGHT  0700   72 76  140/  5/  6 1023.9R
BALT KEY BRIDGE  0648          210/  2/  3 1022.3S
COVE POINT       0648          110/  5/  6 1023.0R
LEWISETTA        0642      79  160/  3/  7 1021.6R
SOLOMONS ISLAND  0642      77  130/  2/  3   N/A
PINEY POINT      0648           60/  3/  4   N/A
$$